Погода Жамбейты

Хотите узнать прогноз погоды Жамбейты? Тогда Вам сюда: Погода Жамбейты

Поиск расширенной информации на нашем сайте:

Полезная информация:

Новости сайта



02.01.2020
Опубликован Долгосрочный прогноз погоды по городам России и ближнего зарубежья на январь 2020 года.
Карты: Прогноз на январь и февраль 2020 года, Сравнение прогнозируемой аномалии приземной температуры воздуха на январь 2020 года по разным моделям.




Погода Жамбейты - сегодня

Время (UTC), дата Ветер
(°,м/с) 
Видим.   Явления Облачность Т
(°С)
Тd
(°С)
f(%) Тe
(°С)
Pmin
(гПа)
dP
(гПа)
Po
(мм)
O2
(г/м3)
Тmin Tmax R s Состояние
почвы
12 22.10.21 250 (З) 11-15{16}  20000 м    6/0 верхняя 
[Ci fib]
+15.9 +4 45 +15  1013.6  -0.5  757  288           
15 22.10.21 230 (ЮЗ) 7{15}  н/о    4/0 верхняя 
[Ci fib]
+11.5 +3.8 59 +10  1014.8  0.9  758  293    +17       
18 22.10.21 210 (ЮЗ) н/о    ясно 
+8.2 -1.6 50 +6  1015.5  1.6  759  297    +17       
21 22.10.21 210 (ЮЗ) н/о    ясно 
+5 -3.4 55 +3  1015.8  0.2  759  301           
00 23.10.21 240 (ЮЗ) н/о    ясно 
+6 -1.6 58 +4  1016.2  0.5  759  300           
03 23.10.21 200 (Ю) 20000 м    ясно 
+6.2 +0.5 67 +5  1016.7  0.5  750  295           
06 23.10.21 220 (ЮЗ) 20000 м    8/0 верхняя 
[Cc]
+10.2 +4.3 67 +9  1018.2  1.5  761  295  +5         
09 23.10.21 250 (З) 20000 м    9/0 средняя, верхняя 
[Ac cast|Ci sp]
+15.8 +6.5 54 +16  1018  -0.1  761  289           
12 23.10.21 260 (З) 20000 м    9/0 средняя, верхняя 
[Ac lent|Ci fib]
+18 +6.4 47 +18  1017.6  -0.4  760  286           
15 23.10.21 180 (Ю) н/о    8/0 средняя, верхняя 
[Ac lent|Ci fib]
+12.3 +6.8 69 +12  1018.1  0.4  761  292    +18.5       
18 23.10.21 190 (Ю) н/о    ясно 
+9.5 +5 73 +9  1018  -0.1  761  295    +18.5       
21 23.10.21 200 (Ю) н/о    10/0 верхняя 
[Cs]
+9.4 +5.2 75 +8  1016.7  -1.3  760  295           
00 24.10.21 210 (ЮЗ) н/о    10/0 средняя 
[Ac und]
+9 +5.9 81 +7  1015.3  -1.4  759  295           
03 24.10.21 220 (ЮЗ) 20000 м    10/10 300 м 
[St]
+9.1 +8.9 99 +7  1014.7  -0.6  758  294           
06 24.10.21 250 (З) 20000 м    10/10 600 м кучево-дожд. 
[Cb cap]
+10.8 +8.4 85 +9  1015.4  0.7  759  293  +8.5         
09 24.10.21 250 (З) 20000 м  слаб. ливневой дождь  10/10 600 м кучево-дожд. 
[Cb cap]
+11.2 +9.2 87 +10  1016  0.6  759  292           
12 24.10.21 240 (ЮЗ) 20000 м  слаб. ливневой дождь  10/10 600 м кучево-дожд. 
[Cb cap]
+11 +10 94 +12  1016.1  0.1  759  292           
15 24.10.21 240 (ЮЗ) н/о  {ливн. осадки}  10/0 средняя 
[Ac und]
+10.5 +9.5 94 +11  1016.9  0.8  760  293    +11.6     
18 24.10.21 тихо ()   н/о  туман{ливн. осадки}  ?/?  
+8.5 +8.5 100 +9  1016.4  -0.5  759  295    +11.6     
21 24.10.21 тихо ()   н/о  туман  10/10 600 м кучево-дожд. 
[Cb cap]
+7.4 +7.4 100 +7  1016.2  -0.2  759  297           
00 25.10.21 тихо ()   н/о  {туман}  10/10 600 м кучево-дожд. 
[Cb cap]
+6 +5.8 99 +6  1016  -0.2  759  298           
03 25.10.21 180 (Ю) 20000 м    10/10 600 м кучево-дожд. 
[Cb cap]
+6.4 +3.8 83 +7  1015.6  -0.4             
06 25.10.21 240 (ЮЗ) 20000 м    9/4 600 м средняя, верхняя 
[Sc|Ac trans|Ci fib]
+7.8 +4.6 80 +7  1016.2  0.4  759  297  +5.8         
09 25.10.21 310 (СЗ) 20000 м    9/9 1000 м 
[Sc diur, vesp]
+9.6 +4.6 71 +9  1016  759  295           
12 25.10.21 320 (СЗ) 20000 м    9/9 1000 м 
[Sc diur, vesp]
+9.6 -0.6 49 +8  1017.2  1.2  760  296           
Время (UTC), дата Ветер
(°,м/с) 
Видим.   Явления Облачность Т
(°С)
Тd
(°С)
f(%) Тe
(°С)
Pmin
(гПа)
dP
(гПа)
Po
(мм)
O2
(г/м3)
Тmin Tmax R s Состояние
почвы

Для получения пояснительной информации подведите курсор к названию столбца.

ПОГОДА Жамбейты - архив

Всё, что Вы хотите узнать о погоде Жамбейты - удобно и подробно!

Выберите нужную дату (начиная с 1 января 2019* года) и нажмите кнопку "Найти".
Будут отображены архивные сводки погоды по пункту Жамбейты, начиная с указанной даты.


Отображать данные в формате CSV (для использования в таблицах Excel)


Внимание! Наш архив погоды предназначен исключительно для личного некоммерческого использования в познавательных целях. Если Вам необходимы официальные справки о состоянии погоды (для производственных, юридических, коммерческих и т.п. целей), обращайтесь в органы Росгидромета.

*Примечание: данная дата относится к архиву по метеостанциям СССР (Россия, СНГ, Балтия).
Архив по метеостанциям Зарубежной Европы и Азии (кроме Китая) хранится 10 дней, по другим регионам земного шара (Китай, Африка, Америка, Австралия, Океания) - 1 день.

Жамбейты - район местоположения метеостанции


Название, широта, долгота, высота метеостанции:
Жамбейты 50.2°ш. 52.6°д. 32 м над ур. моря [Казахстан]

Дополнительная информация

В oтличие oт бoльшинства пoгoдных сайтoв мы публикуем пoдрoбную метеoинфoрмацию в детальнoм прoфессиoнальнoм фoрмате.

Характеристики температуры и влажнoсти вoздуха измеряются на высoте 2 м в тени вдали oт зданий и деревьев.
Скoрoсть ветра измеряется на высoте 10 м (на урoвне рoста челoвека скoрoсть ветра ниже в 1.5-2 раза). Если метеoстанция нахoдится в гoрoде или в лесу, тo скoрoсть ветра занижена на 2-4 м/с пo сравнению с oткрытым местoм. Скoрoсть ветра над акватoриями крупных рек и oзёр, а также на вершинах хoлмoв на 2-5 м/с выше, чем в oбычных услoвиях.
Атмoсфернoе давление в разных тoчках местнoсти мoжет значительнo oтличаться oт давления на метеoстанции, в зависимoсти oт услoвий рельефа (при пoдъёме на 10 м давление пoнижается примернo на 1 мм рт.ст.).